www.pogodaiklimat.ru

Погода и климат >> Архив погоды >> Россия >> Ханты-Мансийский АО >> Ваховск


ПОГОДА в Ваховске

  • Прогноз погоды в Ваховске
  • Монитор погоды в Ваховске
  • Климат города

АРХИВ ПОГОДЫ в Ваховске

Время (UTC), дата Ветер
(напр.,м/с)
 
Видим.   Явления Облачность Т
(С)
Тd
(С)
f
(%)
Тe
(С)
Тes
(С)
Комфортность P
(гПа)
Po
(гПа)
Тmin
(С)
Tmax
(С)
R
(мм)
R24
(мм)
S
(см)
03 14.01 З 3 10 км {снег} 10/0
[As op]
-16.0 -18.6 80 -23 -23 1008.7 1001.4 -18.1 2 41
06 14.01 З 1 н/о н/о -18.5 -21.1 80 -21 -21 1010.3 1002.9 -18.6
09 14.01 З 2 10 км 6/0
[Ci fib]
-16.9 -20.3 75 -22 -22 1010.9 1003.5
12 14.01 СЗ 3 н/о н/о -21.1 -24.3 75 -29 -29 1014.0 1006.5
15 14.01 З 1 10 км ясно -26.3 -29.2 76 -30 -30 1016.1 1008.4 -16.0
18 14.01 Ю 1 10 км ясно -29.2 -32.8 71 -33 -33 опасность
обморожения
1016.6 1008.8
21 14.01 Ю 1 10 км ясно -34.8 -38.9 66 -39 -39 опасность
обморожения
1016.6 1008.6
00 15.01 штиль 0 10 км ясно -36.4 -40.9 63 -36 -36 опасность
обморожения
1015.5 1007.5
03 15.01 ЮВ 1 10 км 10/0
[Ac und]
-24.2 -27.3 75 -28 -28 1012.6 1005.0 -37.0 41
06 15.01 Ю 3 н/о н/о -21.1 -23.9 78 -29 -29 1009.8 1002.3
09 15.01 ЮВ 2 2000 м снег 10/0
[As op]
-18.2 -20.8 80 -24 -24 1007.0 999.6
12 15.01 ЮВ 2 н/о н/о -16.3 -18.7 82 -22 -22 1005.1 997.8
15 15.01 штиль 0 4000 м слабый снег 10/10 600 м
[Sc]
-14.5 -16.5 85 -15 -15 1004.0 996.7 -14.5 2
18 15.01 З 1 10 км {снег} 10/10 600 м
[Sc]
-13.5 -15.4 86 -16 -16 1004.5 997.2
21 15.01 С 2 10 км 10/10 600 м
[Sc]
-13.8 -15.6 86 -19 -19 1005.6 998.3
00 16.01 СВ 1 4000 м слабый снег 10/10 600 м
[Sc]
-15.0 -17.0 85 -18 -18 1006.6 999.3
03 16.01 штиль 0 4000 м слабый снег 10/10 600 м
[Sc]
-14.0 -16.0 85 -14 -14 1005.9 998.6 -15.2 0.6 44
06 16.01 ЮЗ 2 н/о н/о -6.5 -7.6 92 -11 -11 1004.0 997.0
09 16.01 З 4
{11}
4000 м слабый снег 10/10 600 м
[Sc]
-3.5 -5.3 87 -10 -10 1004.1 997.1
12 16.01 З 3 н/о н/о -3.7 -5.7 86 -9 -9 1005.1 998.1
15 16.01 З 2 4000 м слабый снег 10/10 600 м
[Sc]
-3.6 -5.3 88 -8 -8 1005.7 998.7 -3.3 0.6
18 16.01 СЗ 6-12
{12}
4000 м слабый снег 10/10 600 м
[Sc]
-5.2 -8.4 78 -13 -13 1008.0 1000.9
21 16.01 З 3
{12}
10 км {снег} 10/10 600 м
[Sc]
-7.8 -10.6 80 -14 -14 1010.3 1003.2
00 17.01 СЗ 4 10 км {снег} 10/10 600 м
[Sc]
-11.1 -14.0 79 -18 -18 1012.9 1005.7
03 17.01 СЗ 2 10 км 10/10 600 м
[Sc]
-14.5 -17.2 80 -19 -19 1014.1 1006.8 -14.8 0.1 45
06 17.01 З 2 н/о н/о -14.4 -18.7 70 -19 -19 1016.1 1008.7
09 17.01 СЗ 3 10 км 9/9 600 м
[Sc]
-15.0 -19.5 68 -22 -22 1018.6 1011.2
12 17.01 С 3 н/о н/о -18.2 -22.4 70 -25 -25 1022.4 1014.9
15 17.01 С 2 10 км 10/0
[Ac und]
-20.5 -25.6 64 -26 -26 1025.4 1017.8 -14.3
18 17.01 СВ 1 10 км 10/0
[Ci fib]
-25.9 -30.8 63 -30 -30 1028.5 1020.8
21 17.01 С 2 10 км ясно -29.8 -33.9 67 -37 -37 опасность
обморожения
1030.9 1023.0
00 18.01 С 2 10 км ясно -32.1 -36.3 66 -40 -40 опасность
обморожения
1033.3 1025.3
03 18.01 СВ 1 10 км ясно -35.8 -39.7 67 -41 -41 опасность
обморожения
1034.7 1026.5 -35.8 44
06 18.01 С 1 н/о н/о -35.0 -39.9 61 -40 -40 опасность
обморожения
1036.3 1028.2 -36.9
09 18.01 С 1 10 км ясно -32.8 -38.8 55 -37 -37 опасность
обморожения
1037.6 1029.5
12 18.01 штиль 0 н/о н/о -37.6 -42.0 63 -38 -38 опасность
обморожения
1039.3 1031.1
15 18.01 СВ 1 10 км ясно -40.3 -45.3 59 -46 -46 опасность
обморожения
1040.4 1032.1 -33.0
18 18.01 СВ 1 10 км ясно -41.6 -46.8 57 -47 -47 опасность
обморожения
1041.6 1033.1
21 18.01 штиль 0 10 км ясно -43.0 -48.4 55 -43 -43 опасность
обморожения
1042.6 1034.1
00 19.01 С 1 10 км ясно -44.3 -49.8 54 -50 -50 опасность
обморожения
1043.7 1035.1
03 19.01 штиль 0 н/о н/о -44.1 -49.5 55 -44 -44 опасность
обморожения
1044.6 1036.1 -44.7
06 19.01 СВ 1 н/о н/о -40.9 -46.2 56 -46 -46 опасность
обморожения
1046.2 1037.8
09 19.01 С 1 10 км ясно -37.1 -43.9 49 -42 -42 опасность
обморожения
1047.6 1039.3
12 19.01 СВ 1 н/о н/о -40.6 -46.0 56 -46 -46 опасность
обморожения
1049.2 1040.8
18 19.01 СВ 1 10 км ясно -42.9 -48.4 54 -48 -48 опасность
обморожения
1051.9 1043.4
21 19.01 СВ 1 10 км ясно -43.5 -49.0 54 -49 -49 опасность
обморожения
1052.9 1044.3
00 20.01 СВ 1 10 км ясно -43.5 -49.0 54 -49 -49 опасность
обморожения
1054.0 1045.4
03 20.01 СВ 1 н/о н/о -44.2 -49.8 53 -50 -50 опасность
обморожения
1055.3 1046.7 -44.3
06 20.01 С 1 н/о н/о -41.9 -47.3 55 1056.3 1047.7 -44.3
09 20.01 С 1 10 км 10/0
[Ci fib]
-37.5 -44.1 50 1057.4 1049.0
12 20.01 С 1 10 км 10/0
[Ci fib]
-37.5 -44.1 50 -42 -42 опасность
обморожения
1057.4 1049.0
18 20.01 СВ 1 10 км ясно -42.1 -47.8 54 -48 -48 опасность
обморожения
1061.4 1052.8
21 20.01 СВ 1 10 км ясно -44.2 -49.7 54 -50 -50 опасность
обморожения
1062.9 1054.2

 

Местоположение метеостанции Ваховск (Ханты-Мансийский АО, Россия): широта 60.95 долгота 78.77 высота над уровнем моря 56 м.

В архиве по умолчанию представлена погода в Ваховске за последнюю неделю. Архивные данные за месяц целиком и за предыдущие месяцы, начиная с января 2011 года, Вы можете получить, выбрав интересующий диапазон дат из раскрывающегося списка и нажав кнопку "Ввод!".

Внимание! Время в таблицах - всемирное. Для получения местного времени необходимо прибавить поправку, которая в Ваховске равна 5 ч.

Смотрите также архив погоды в соседних городах и на ближайших метеорологических станциях:

Погода в Александровском (Томская область, Россия) (76 км)
Погода в Ларьяке (Ханты-Мансийский АО, Россия) (81 км)
Погода в Нижневартовске (Ханты-Мансийский АО, Россия) (117 км)
Погода в Радужном (Ханты-Мансийский АО, Россия) (154 км)
Погода в Прохоркино (Томская область, Россия) (164 км)
Погода в Среднем Васюгане (Томская область, Россия) (195 км)
Погода в Корликах (Ханты-Мансийский АО, Россия) (206 км)
Погода в Напасе (Томская область, Россия) (213 км)
Погода в Каргасоке (Томская область, Россия) (239 км)
Погода в Угуте (Ханты-Мансийский АО, Россия) (263 км)

Пояснения к столбцам:

Ветер - указаны скорость ветра в м/с - средняя за 10 мин, порывы в срок и между сроками (в фигурных скобках) и направление, откуда дует ветер: С - северный, СВ - северо-восточный, В - восточный, ЮВ - юго-восточный, Ю - южный, ЮЗ - юго-западный, З - западный, СЗ - северо-западный.
Видимость - горизонтальная дальность видимости в метрах или километрах. При видимости от 1 до 10 км при отсутствии осадков обычно наблюдается дымка, при ухудшении видимости до 1 км и менее - туман. В сухую погоду видимость может ухудшаться дымом, пылью или мглою.
Явления - указаны атмосферные явления, наблюдавшиеся в срок или в последний час перед сроком; фигурными скобками обозначены явления, наблюдавшиеся между сроками (за 1-3 часа до срока); квадратными скобками обозначены град или гололедные отложения с указанием их диаметра в мм.
Облачность - указаны через наклонную черту общая и нижняя облачность в баллах и высота нижней границы облаков в метрах; квадратными скобками обозначены формы облаков: Ci - перистые, Cs - перисто-слоистые, Cc - перисто-кучевые, Ac - высококучевые, As - высокослоистые, Sc - слоисто-кучевые, Ns - слоисто-дождевые, Cu - кучевые, Cb - кучево-дождевые. Подробнее классификацию облаков см. в Атласе облаков (PDF).
T - Температура воздуха - температура, измеренная на высоте 2 м над землей.
Td - Температура точки росы - температура, при понижении до которой содержащийся в воздухе водяной пар достигнет насыщения.
f - Относительная влажность воздуха - влажноcть воздуха, измеренная на высоте 2 м над землей.
Te - Эффективная температура - температура, которую ощущает одетый по сезону человек в тени. Характеристика душности погоды. При расчете учитывается влияние влажности воздуха и скорости ветра на теплоощущения человека.
Tes - Эффективная температура на солнце - температура, которую ощущает человек, с поправкой на солнечный нагрев. Характеристика знойности погоды. Зависит от высоты солнца над горизонтом, облачности и скорости ветра. Ночью, в пасмурную погоду, а также при ветре 12 м/с и более поправка равна нулю.
P - Атмосферное давление - приведенное к уровню моря атмосферное давление.
Po - Атмосферное давление - измеренное на уровне метеостанции атмосферное давление.
Tmin - Минимальная температура - минимум температуры воздуха на высоте 2 м над землей.
Tmax - Максимальная температура - максимум температуры воздуха на высоте 2 м над землей.
R - Количество осадков - Количество выпавших осадков за период времени, мм. При наведении курсора мыши на число - период времени, за который выпало указанное количество осадков.
R24 - Количество осадков - Количество выпавших осадков за 24 часа, мм.
S - Снежный покров - Высота снежного покрова, см. При наведении курсора мыши на число - состояние снежного покрова и степень покрытия местности в баллах.